Zurück zum Katalog

FENGYUN 1C DEB

AktivSSO
NORAD 31753·DEBRIS·🇨🇳 China

Gestartet May 10, 1999 von Taiyuan Satellite Launch Center

Loading…

Nächste Überflüge (nächste 24 Stunden)

TLE

AktuellSource: Space-Track

Epoche: Sep 14, 2026, 13:36 UTC

1 31753U 99025CFC 26257.56717255  .00000323  00000-0  15406-3 0  9991
2 31753  98.6032 288.0553 0159664  98.5859  51.8690 14.18937476999304

Verfolge FENGYUN 1C DEB in Echtzeit mit AllMySat

Download on the App Store